Weather in Abagaytuy

Russia / Zabaykalsky Krai     49°35′05″N   117°50′05″E
temp.,
°C
wind,
m/s
gust,
m/s
humid.,
%
clouds,
%
prec.,
mm/h
press.,
hPa
HPBL,
m
5 december, sun
sun500:00−12sw119738 0.0 101414
03:00−13w1196100 0.0 101310
06:00−11w2290100 0.0 101323
09:00−5nw81871100 0.0 1012509
12:00−4nw10167013 0.0 1014518
15:00−3nw1017684 0.0 1015600
18:00−5nw613730 0.0 1019349
21:00−6wnw716680 0.0 1021458
6 december, mon
mon600:00−7wnw917733 0.0 1024600
03:00−9wnw815700 0.0 1027496
06:00−11w49823 0.0 1029180
09:00−13wsw34885 0.0 103045
12:00−7wsw39645 0.0 1028270
15:00−5ssw49695 0.0 1024336
18:00−9ssw48895 0.0 1024131
21:00−11sw34935 0.0 102460
7 december, tue
tue700:00−12wsw22935 0.0 102520
03:00−12wsw22905 0.0 102515
06:00−12wsw22864 0.0 102517
09:00−11wsw22844 0.0 102715
12:00−4sw23620 0.0 102669
15:00−3ssw33700 0.0 102661
18:00−9ssw22865 0.0 102826
21:00−11ssw11915 0.0 102914
8 december, wed
wed800:00−12s11955 0.0 103010
03:00−13se119629 0.0 10299
06:00−14ene119742 0.0 102810
09:00−14ene1197100 0.0 102712
12:00−9sse2380100 0.0 1025155
15:00−7sse2479100 0.0 1020175
18:00−9ene2292100 0.0 101913
21:00−9nne1194100 0.0 101812
9 december, thu
thu900:00−8e1196100 0.6 101642
03:00−8nw1197100 1.8 101517
06:00−6wnw4108977 0.3 1015378
09:00−7nw815761 0.3 1019405
12:00−7nw816710 0.0 1023557
15:00−8nw816690 0.0 1025512
18:00−10nw612747 0.0 1030296
21:00−13w348325 0.0 103348